Hoegh Berlin — C6XQ4 — position and weather

sailwx.info

Track history (hours):
 
Tides and Currents Weather Stations Pressure Air Temp Water Temp Dewpoint Dewpoint Depression Visibility Wind Speed Wind Dir Waves Ship Positions

Hoegh Berlin

Last reported at 2015-Mar-26 20:28 UTC. Time now 2015-Mar-26 22:33 UTC.
Position N 36°53' W 011°14'.

Length 228 m; draft 9 m.

Type: Cargo ship. MMSI: 311019100.

Date/timePositionNaut miles runAvg speedWind from/ knotsBaromVisibWave heightAir tempDewpointWater temp
2015-Mar-26 20:28N 36°53' W 011°14'58217.5
2015-Mar-25 11:13N 39°07' W 023°12'1517.6
2015-Mar-25 10:21N 39°10' W 023°32'1417.5
2015-Mar-25 09:34N 39°12' W 023°49'1917.8
2015-Mar-25 08:30N 39°15' W 024°13'1918.1
2015-Mar-25 07:26N 39°17' W 024°38'1618.0
2015-Mar-25 06:31N 39°20' W 024°59'2217.9
2015-Mar-25 05:19N 39°23' W 025°27'5417.6
2015-Mar-25 02:15N 39°31' W 026°36'2017.4
2015-Mar-25 01:07N 39°34' W 027°01'1817.7
2015-Mar-25 00:06N 39°37' W 027°24'1017.6
2015-Mar-24 23:33N 39°39' W 027°36'1817.6
2015-Mar-24 22:33N 39°41' W 027°59'1817.6
2015-Mar-24 21:33N 39°44' W 028°21'1817.6
2015-Mar-24 20:33N 39°47' W 028°44'1818.1
2015-Mar-24 19:33N 39°50' W 029°07'1817.8
2015-Mar-24 18:33N 39°52' W 029°30'  
2015-Mar-17 08:31N 30°24' W 081°31'1010.6
2015-Mar-17 07:33N 30°24' W 081°19'22 7.4
2015-Mar-17 04:34N 30°27' W 080°54'1211.6
2015-Mar-17 03:33N 30°30' W 080°41'1312.6
2015-Mar-17 02:33N 30°33' W 080°26'5111.6
2015-Mar-16 22:09N 30°60' W 079°36'912.3
2015-Mar-16 21:26N 31°06' W 079°29'  
Track history (hours):
 
Tides and Currents Weather Stations Pressure Air Temp Water Temp Dewpoint Dewpoint Depression Visibility Wind Speed Wind Dir Waves Ship Positions

Hoegh Berlin

Last reported at 2015-Mar-26 20:28 UTC. Time now 2015-Mar-26 22:33 UTC.
Position N 36°53' W 011°14'.

Length 228 m; draft 9 m.

Type: Cargo ship. MMSI: 311019100.

Date/timePositionNaut miles runAvg speedWind from/ knotsBaromVisibWave heightAir tempDewpointWater temp
2015-Mar-26 20:28N 36°53' W 011°14'58217.5
2015-Mar-25 11:13N 39°07' W 023°12'1517.6
2015-Mar-25 10:21N 39°10' W 023°32'1417.5
2015-Mar-25 09:34N 39°12' W 023°49'1917.8
2015-Mar-25 08:30N 39°15' W 024°13'1918.1
2015-Mar-25 07:26N 39°17' W 024°38'1618.0
2015-Mar-25 06:31N 39°20' W 024°59'2217.9
2015-Mar-25 05:19N 39°23' W 025°27'5417.6
2015-Mar-25 02:15N 39°31' W 026°36'2017.4
2015-Mar-25 01:07N 39°34' W 027°01'1817.7
2015-Mar-25 00:06N 39°37' W 027°24'1017.6
2015-Mar-24 23:33N 39°39' W 027°36'1817.6
2015-Mar-24 22:33N 39°41' W 027°59'1817.6
2015-Mar-24 21:33N 39°44' W 028°21'1817.6
2015-Mar-24 20:33N 39°47' W 028°44'1818.1
2015-Mar-24 19:33N 39°50' W 029°07'1817.8
2015-Mar-24 18:33N 39°52' W 029°30'  
2015-Mar-17 08:31N 30°24' W 081°31'1010.6
2015-Mar-17 07:33N 30°24' W 081°19'22 7.4
2015-Mar-17 04:34N 30°27' W 080°54'1211.6
2015-Mar-17 03:33N 30°30' W 080°41'1312.6
2015-Mar-17 02:33N 30°33' W 080°26'5111.6
2015-Mar-16 22:09N 30°60' W 079°36'912.3
2015-Mar-16 21:26N 31°06' W 079°29'  

Dump ship's entire track history